Location: Blairvadach
(56.2780°N, 6.9720°W)
Time: 15:28:59
(UTC+01:00)

OTV 5 (USA 277) - Pass Details

Date: 25 April 2019
Orbit: 310 x 325 km, 54.5° (Epoch: 08 May)

Event Time Altitude Azimuth Distance (km) Brightness Sun altitude
Rises 22:22:52 0° 228° (SW) 2,032 ? -10.7°
Reaches altitude 10° 22:24:58 10° 214° (SW) 1,205 ? -10.9°
Maximum altitude 22:27:16 26° 155° (SSE) 666 ? -11.1°
Enters shadow 22:28:12 21° 120° (ESE) 778 ? -11.2°
